Regional Weather Roundup
Issued by NWS

Home | Current Version | Previous Version | Text Only | Print | Product List | Glossary On
Versions: 1 2 3 4 5 6 7 8 9 10 11 12 13 14 15 16 17 18 19 20 21 22 23 24 25 26 27 28 29 30 31 32 33 34 35 36 37 38 39 40 41 42 43 44 45 46 47 48 49 50
000
ASUS43 KLSX 051407
RWRMO

WEATHER SUMMARY FOR MISSOURI
NATIONAL WEATHER SERVICE SPRINGFIELD MO
800 AM CST THU MAR 05 2015

NOTE: "FAIR" INDICATES FEW OR NO CLOUDS BELOW 12,000 FEET WITH NO
       SIGNIFICANT WEATHER AND/OR OBSTRUCTIONS TO VISIBILITY.
       CURRENT SKY AND/OR WEATHER CONDITIONS ARE NOT AVAILABLE FOR
       CHILLICOTHE AND FARMINGTON.

MOZ001>031-035>038-043-044-053-054-051500-
...NORTHERN AND WESTERN MISSOURI...

CITY           SKY/WX    TMP DP  RH WIND       PRES   REMARKS
KANSAS CTY INT FAIR      12  -1  56 N8        30.55R WCI   0
KANSAS C DTWN  SUNNY     14   0  53 N7        30.58R WCI   4
LEE`S SUMMIT   SUNNY     13  -2  51 N10       30.55R WCI   0
ST JOSEPH      SUNNY      9   0  67 CALM      30.60R
CHILLICOTHE      N/A     10   0  63 NW8       30.58R WCI  -2

$$
MOZ066>068-077>081-088>096-101>105-051500-
...SOUTHWEST MISSOURI...

CITY           SKY/WX    TMP DP  RH WIND       PRES   REMARKS
SPRINGFIELD    SUNNY     17   8  67 NW7       30.49R WCI   8
JOPLIN         SUNNY     20  11  68 N6        30.54R WCI  12

$$
MOZ032>034-039>042-045>050-055>058-069>072-051500-
...CENTRAL MISSOURI...

CITY           SKY/WX    TMP DP  RH WIND       PRES   REMARKS
COLUMBIA       SUNNY     16   7  67 N12       30.51R WCI   3
JEFFERSON CITY SUNNY     17   6  62 NW9       30.54R WCI   6
ROLLA          SUNNY     18   6  59 NW10      30.45R WCI   6
SEDALIA        SUNNY     15   2  56 NW12      30.55R WCI   2
WHITEMAN AFB   SUNNY     13   0  55 N9        30.54R WCI   1
WARRENSBURG    SUNNY     14   0  52 NW9       30.57R WCI   2
OSAGE BEACH    SUNNY     18   1  49 NW8       30.52R WCI   7

$$
MOZ051-052-059>065-051500-
...EAST CENTRAL MISSOURI...

CITY           SKY/WX    TMP DP  RH WIND       PRES   REMARKS
ST LOUIS INTL  MOSUNNY   18   2  49 N12       30.50R WCI   5
SPIRIT OF STL  MOSUNNY   18   4  54 N8        30.51R WCI   8
ST CHARLES     SUNNY     16   3  56 N9        30.52R WCI   4

$$
MOZ072>076-082>087-097>100-106>115-051500-
...SOUTH CENTRAL AND SOUTHEAST MISSOURI...

CITY           SKY/WX    TMP DP  RH WIND       PRES   REMARKS
CAPE GIRARDEAU CLOUDY    20  10  65 N12       30.46R WCI   8
FARMINGTON     MOSUNNY   18   7  62 N6        30.47R WCI   9
POPLAR BLUFF   PTSUNNY   21   7  54 N9        30.46R WCI  11
WEST PLAINS    SUNNY     20   7  57 NW7       30.45R WCI  11

$$


USA.gov is the U.S. government's official web portal to all federal, state and local government web resources and services.